NUSANTARA SATU          
1 44048U 19009A   19265.04910503 -.00000241  00000-0  00000+0 0  9991
2 44048   0.0223 151.9097 0002206  38.4327 333.9522  1.00269770  2100
FALCON 9 R/B            
1 44050U 19009C   19264.45472414  .00001812  00000-0  12007-2 0  9999
2 44050  26.7961 337.0558 8352913 235.8295  17.7236  1.08050586  2261
S5                      
1 44065U 19009D   19264.45059969 -.00000003  00000-0  00000+0 0  9990
2 44065   0.3790  97.1011 0003993  70.7447 192.1873  0.99334960  2008
S5 DEB                  
1 44066U 19009E   19263.14830284 -.00000195  00000-0  00000+0 0  9995
2 44066   0.3769  97.1222 0012928  88.8213 174.0646  0.98985817  1994